QPF
0.00 0.00 0.00 0.00 0.00 0.00 0.00 0.00 0.00 0.00 0.01 0.01 0.01 0.00 0.00 0.00 0.00 0.00 0.01 0.31 0.41 0.21 0.03 0.00 0.00 0.00 0.00 0.00 0.01 0.00 0.00 0.00 0.00 0.00 0.00 0.00 0.00 0.00 0.00 0.00 0.00 0.00 0.00 0.00 0.00 0.00 0.00 0.00 0.00
0.00 0.00 0.00 0.00 0.00 0.00 0.00 0.00 0.00 0.00 0.01 0.03 0.01 0.00 0.00 0.00 0.00 0.00 0.01 0.04 0.04 0.04 0.01 0.00 0.00 0.00 0.02 0.02 0.02 0.01 0.00 0.00 0.00 0.00 0.00 0.00 0.00 0.00 0.00 0.00 0.00 0.00 0.00 0.00 0.00 0.00 0.00 0.00 0.00
0.00 0.00 0.00 0.00 0.00 0.00 0.00 0.00 0.00 0.00 0.01 0.01 0.01 0.00 0.00 0.00 0.00 0.01 0.04 0.08 0.04 0.03 0.00 0.00 0.00 0.00 0.04 0.04 0.02 0.01 0.00 0.00 0.00 0.00 0.00 0.00 0.00 0.00 0.00 0.00 0.00 0.00 0.00 0.00 0.00 0.00 0.00 0.00 0.00
0.00 0.00 0.00 0.00 0.00 0.00 0.00 0.00 0.01 0.03 0.04 0.01 0.00 0.00 0.00 0.01 0.02 0.03 0.28 0.19 0.10 0.03 0.02 0.01 0.01 0.04 0.10 0.10 0.07 0.00 0.00 0.00 0.00 0.00 0.00 0.00 0.00 0.00 0.00 0.00 0.00 0.00 0.00 0.00 0.00 0.00 0.00 0.00 0.00
0.00 0.00 0.00 0.00 0.00 0.00 0.00 0.00 0.01 0.02 0.06 0.02 0.00 0.00 0.00 0.01 0.08 0.18 0.45 0.46 0.31 0.23 0.11 0.04 0.03 0.17 0.16 0.25 0.06 0.00 0.00 0.00 0.00 0.00 0.00 0.00 0.00 0.00 0.00 0.00 0.00 0.00 0.00 0.00 0.00 0.00 0.00 0.00 0.00
0.00 0.00 0.00 0.00 0.00 0.00 0.00 0.01 0.02 0.01 0.01 0.00 0.01 0.00 0.01 0.00 0.10 0.26 0.41 0.49 0.47 0.29 0.25 0.15 0.26 0.30 0.52 0.33 0.03 0.00 0.00 0.00 0.00 0.00 0.00 0.00 0.00 0.00 0.00 0.00 0.00 0.00 0.00 0.00 0.00 0.00 0.00 0.00 0.00
0.00 0.00 0.00 0.00 0.00 0.00 0.00 0.02 0.03 0.02 0.01 0.00 0.00 0.01 0.03 0.07 0.09 0.13 0.27 0.21 0.20 0.24 0.45 0.49 0.42 0.37 0.65 0.27 0.03 0.00 0.00 0.00 0.00 0.00 0.00 0.00 0.00 0.00 0.00 0.00 0.00 0.00 0.00 0.00 0.00 0.00 0.00 0.00 0.00
0.00 0.00 0.00 0.00 0.00 0.01 0.03 0.06 0.04 0.01 0.00 0.00 0.01 0.01 0.01 0.16 0.13 0.04 0.03 0.03 0.01 0.27 0.63 0.59 0.48 0.89 0.44 0.05 0.00 0.00 0.00 0.00 0.00 0.00 0.00 0.00 0.00 0.00 0.00 0.00 0.00 0.00 0.00 0.00 0.00 0.00 0.00 0.00 0.00
0.00 0.00 0.00 0.00 0.01 0.05 0.06 0.03 0.01 0.01 0.01 0.01 0.01 0.02 0.12 0.16 0.06 0.01 0.00 0.00 0.02 0.17 0.53 0.86 0.14 0.20 0.23 0.00 0.00 0.00 0.00 0.00 0.00 0.00 0.00 0.00 0.00 0.00 0.00 0.00 0.00 0.00 0.00 0.00 0.00 0.00 0.00 0.00 0.00
0.00 0.00 0.00 0.00 0.01 0.04 0.04 0.02 0.01 0.01 0.01 0.04 0.09 0.12 0.42 0.46 0.14 0.08 0.02 0.08 0.11 0.07 0.25 0.16 0.04 0.04 0.02 0.00 0.00 0.00 0.00 0.00 0.00 0.00 0.00 0.00 0.00 0.00 0.00 0.00 0.00 0.00 0.00 0.00 0.00 0.00 0.00 0.00 0.00
0.00 0.00 0.00 0.00 0.00 0.00 0.01 0.04 0.04 0.01 0.01 0.04 0.25 0.25 0.25 0.17 0.31 0.38 0.17 0.06 0.05 0.05 0.09 0.13 0.09 0.01 0.00 0.00 0.00 0.00 0.00 0.00 0.00 0.00 0.00 0.00 0.00 0.00 0.00 0.00 0.01 0.02 0.00 0.00 0.00 0.00 0.00 0.00 0.00
0.00 0.00 0.00 0.00 0.00 0.00 0.03 0.03 0.00 0.00 0.00 0.01 0.01 0.13 0.10 0.11 0.10 0.25 0.24 0.10 0.01 0.01 0.03 0.03 0.02 0.01 0.00 0.00 0.00 0.00 0.00 0.00 0.00 0.00 0.00 0.00 0.00 0.00 0.00 0.00 0.01 0.00 0.00 0.00 0.00 0.00 0.00 0.00 0.00
0.00 0.00 0.00 0.00 0.00 0.00 0.00 0.00 0.00 0.00 0.00 0.00 0.01 0.12 0.07 0.05 0.19 0.15 0.05 0.03 0.00 0.00 0.00 0.00 0.00 0.00 0.00 0.00 0.00 0.00 0.00 0.00 0.00 0.00 0.01 0.01 0.02 0.00 0.00 0.00 0.00 0.00 0.00 0.00 0.00 0.00 0.00 0.00 0.00
0.00 0.00 0.00 0.00 0.00 0.00 0.01 0.00 0.00 0.00 0.01 0.00 0.04 0.14 0.02 0.01 0.01 0.03 0.01 0.00 0.00 0.00 0.00 0.00 0.00 0.00 0.00 0.00 0.00 0.00 0.00 0.00 0.00 0.00 0.01 0.01 0.01 0.02 0.01 0.00 0.00 0.00 0.00 0.00 0.00 0.00 0.00 0.00 0.00
0.00 0.00 0.00 0.00 0.00 0.00 0.01 0.01 0.01 0.00 0.00 0.00 0.01 0.03 0.02 0.01 0.00 0.00 0.00 0.00 0.00 0.00 0.00 0.00 0.00 0.00 0.00 0.00 0.00 0.00 0.00 0.00 0.00 0.00 0.02 0.03 0.03 0.02 0.00 0.00 0.00 0.00 0.00 0.00 0.00 0.00 0.00 0.00 0.00
0.00 0.00 0.00 0.00 0.00 0.00 0.00 0.01 0.00 0.00 0.00 0.00 0.00 0.00 0.00 0.00 0.00 0.00 0.00 0.00 0.00 0.00 0.00 0.00 0.00 0.00 0.00 0.00 0.00 0.00 0.00 0.00 0.00 0.00 0.00 0.00 0.00 0.00 0.00 0.00 0.00 0.00 0.00 0.00 0.00 0.00 0.00 0.00 0.00
0.00 0.00 0.00 0.00 0.00 0.00 0.00 0.00 0.00 0.00 0.00 0.00 0.00 0.00 0.00 0.00 0.00 0.00 0.00 0.00 0.00 0.00 0.00 0.00 0.00 0.00 0.00 0.00 0.00 0.00 0.00 0.00 0.00 0.00 0.00 0.00 0.00 0.00 0.00 0.00 0.00 0.00 0.00 0.00 0.00 0.00 0.00 0.00 0.00
0.00 0.00 0.00 0.00 0.00 0.00 0.00 0.00 0.00 0.00 0.00 0.13 0.02 0.02 0.00 0.00 0.00 0.00 0.00 0.00 0.02 0.02 0.00 0.00 0.00 0.00 0.00 0.01 0.01 0.00 0.00 0.00 0.00 0.00 0.00 0.00 0.00 0.00 0.00 0.00 0.00 0.00 0.00 0.00 0.00 0.00 0.00 0.00 0.00
0.00 0.00 0.00 0.00 0.00 0.00 0.00 0.00 0.00 0.00 0.00 0.04 0.03 0.14 0.05 0.00 0.01 0.01 0.00 0.00 0.01 0.05 0.01 0.00 0.00 0.00 0.00 0.00 0.00 0.00 0.00 0.00 0.00 0.00 0.00 0.00 0.00 0.00 0.00 0.00 0.00 0.00 0.00 0.00 0.00 0.00 0.00 0.00 0.00
0.00 0.00 0.00 0.00 0.00 0.00 0.00 0.00 0.00 0.00 0.00 0.00 0.01 0.14 0.03 0.00 0.00 0.00 0.00 0.00 0.00 0.02 0.01 0.00 0.00 0.00 0.01 0.01 0.00 0.00 0.00 0.00 0.00 0.00 0.00 0.00 0.00 0.00 0.00 0.00 0.00 0.00 0.00 0.00 0.00 0.00 0.00 0.00 0.00
0.00 0.00 0.00 0.00 0.00 0.00 0.00 0.00 0.00 0.00 0.00 0.00 0.00 0.00 0.00 0.00 0.00 0.00 0.00 0.00 0.00 0.00 0.00 0.00 0.00 0.00 0.00 0.00 0.00 0.00 0.00 0.00 0.00 0.00 0.00 0.00 0.00 0.00 0.00 0.00 0.00 0.00 0.00 0.00 0.00 0.00 0.00 0.00 0.00
0.00 0.00 0.00 0.00 0.00 0.00 0.00 0.00 0.00 0.00 0.00 0.00 0.00 0.00 0.00 0.00 0.00 0.00 0.01 0.00 0.00 0.01 0.02 0.02 0.00 0.00 0.00 0.00 0.00 0.00 0.00 0.00 0.00 0.00 0.00 0.00 0.00 0.00 0.00 0.00 0.00 0.00 0.00 0.00 0.00 0.00 0.00 0.00 0.00
0.00 0.00 0.00 0.00 0.00 0.00 0.00 0.00 0.00 0.00 0.00 0.00 0.00 0.00 0.00 0.00 0.00 0.00 0.00 0.00 0.01 0.01 0.02 0.01 0.00 0.00 0.00 0.00 0.00 0.00 0.00 0.00 0.00 0.00 0.00 0.00 0.00 0.00 0.00 0.00 0.00 0.00 0.00 0.00 0.00 0.00 0.00 0.00 0.00
0.00 0.00 0.00 0.00 0.00 0.00 0.00 0.00 0.00 0.00 0.00 0.00 0.01 0.00 0.00 0.00 0.00 0.00 0.00 0.01 0.02 0.02 0.01 0.00 0.00 0.00 0.00 0.00 0.00 0.00 0.00 0.00 0.00 0.00 0.00 0.00 0.00 0.00 0.00 0.00 0.00 0.00 0.00 0.00 0.00 0.00 0.00 0.00 0.00
0.00 0.00 0.00 0.00 0.00 0.00 0.00 0.01 0.00 0.00 0.00 0.00 0.03 0.00 0.00 0.00 0.00 0.00 0.00 0.00 0.00 0.01 0.00 0.00 0.00 0.00 0.00 0.00 0.00 0.00 0.00 0.00 0.00 0.00 0.00 0.00 0.00 0.00 0.00 0.00 0.00 0.00 0.00 0.00 0.00 0.00 0.00 0.00 0.00
0.00 0.00 0.00 0.00 0.00 0.01 0.00 0.00 0.00 0.00 0.00 0.00 0.00 0.00 0.00 0.00 0.00 0.00 0.01 0.00 0.00 0.00 0.00 0.00 0.00 0.00 0.00 0.00 0.00 0.00 0.00 0.00 0.00 0.00 0.00 0.00 0.00 0.00 0.00 0.00 0.00 0.00 0.00 0.00 0.00 0.00 0.00 0.00 0.00
0.00 0.00 0.00 0.00 0.01 0.01 0.00 0.00 0.00 0.00 0.00 0.00 0.00 0.00 0.00 0.01 0.04 0.05 0.02 0.00 0.00 0.00 0.00 0.00 0.00 0.00 0.00 0.00 0.00 0.00 0.00 0.00 0.00 0.00 0.00 0.00 0.00 0.00 0.00 0.00 0.00 0.00 0.00 0.00 0.00 0.00 0.00 0.00 0.00
0.00 0.00 0.00 0.00 0.00 0.00 0.00 0.00 0.00 0.01 0.00 0.00 0.00 0.00 0.00 0.00 0.00 0.00 0.00 0.00 0.00 0.00 0.00 0.00 0.00 0.00 0.00 0.00 0.00 0.00 0.00 0.00 0.00 0.00 0.00 0.00 0.00 0.00 0.00 0.00 0.00 0.00 0.00 0.00 0.00 0.00 0.00 0.00 0.00
0.00 0.00 0.00 0.00 0.00 0.00 0.00 0.00 0.00 0.00 0.00 0.00 0.00 0.00 0.00 0.00 0.00 0.00 0.00 0.00 0.00 0.00 0.00 0.00 0.00 0.00 0.00 0.00 0.00 0.00 0.00 0.00 0.00 0.00 0.00 0.00 0.00 0.00 0.00 0.00 0.00 0.00 0.00 0.00 0.00 0.00 0.00 0.00 0.00
0.00 0.00 0.00 0.00 0.00 0.00 0.00 0.00 0.00 0.00 0.00 0.00 0.00 0.00 0.00 0.00 0.00 0.00 0.00 0.00 0.00 0.00 0.00 0.00 0.00 0.00 0.00 0.00 0.00 0.00 0.00 0.00 0.00 0.00 0.00 0.00 0.00 0.00 0.00 0.00 0.00 0.00 0.00 0.00 0.00 0.00 0.00 0.00 0.00
MSLP
1012.83 1013.03 1013.64 1013.75 1014.63 1013.60 1012.86 1011.47 1010.26 1008.93 1008.44 1008.06 1007.65 1008.39 1009.80 1010.50 1011.57 1013.58 1014.35 1014.72 1014.93 1015.27 1016.92 1017.15 1017.13 1017.68 1017.85 1018.20 1018.41 1018.63 1019.02 1019.11 1019.51 1019.90 1020.08 1020.38 1020.47 1021.06 1021.22 1021.31 1021.46 1021.37 1021.58 1021.82 1021.93 1021.87 1021.87 1021.62 1021.48
1012.72 1013.15 1013.65 1013.55 1013.90 1013.53 1012.50 1010.59 1009.88 1009.38 1008.90 1008.43 1008.71 1009.48 1009.91 1011.47 1012.08 1013.43 1014.48 1015.15 1015.18 1015.27 1016.59 1017.48 1017.20 1017.73 1018.06 1018.31 1018.58 1018.91 1019.12 1019.48 1019.78 1020.15 1020.34 1020.43 1020.88 1021.21 1021.31 1021.59 1021.74 1021.91 1021.94 1022.18 1022.28 1022.24 1022.19 1021.99 1021.84
1012.86 1013.10 1013.80 1013.41 1013.13 1013.06 1011.75 1010.07 1009.37 1009.24 1009.25 1009.19 1009.79 1010.00 1010.77 1012.23 1012.88 1013.50 1013.87 1015.01 1015.55 1015.83 1016.63 1017.35 1017.44 1017.72 1018.15 1018.54 1018.94 1019.18 1019.48 1019.58 1020.04 1020.31 1020.57 1020.72 1021.00 1021.27 1021.49 1021.70 1021.71 1022.23 1022.25 1022.47 1022.51 1022.53 1022.53 1022.40 1022.07
1012.83 1012.91 1013.07 1012.81 1012.54 1011.09 1010.46 1010.18 1009.57 1010.16 1010.55 1010.06 1010.64 1011.57 1011.79 1012.29 1012.72 1013.32 1014.47 1015.18 1015.27 1015.90 1016.89 1017.33 1017.53 1017.85 1018.40 1018.96 1019.35 1019.65 1019.40 1019.86 1020.20 1020.51 1020.86 1021.18 1021.21 1021.43 1021.66 1021.78 1022.04 1022.41 1022.63 1022.71 1022.83 1022.77 1022.83 1022.59 1022.23
1012.96 1012.92 1013.06 1012.59 1011.51 1010.02 1009.84 1009.24 1010.03 1010.20 1011.00 1010.87 1010.67 1011.91 1012.77 1013.53 1013.41 1013.92 1015.26 1015.98 1015.83 1016.54 1017.44 1017.73 1017.87 1018.23 1018.98 1019.25 1019.72 1019.86 1019.79 1020.16 1020.33 1020.63 1021.03 1021.44 1021.53 1021.68 1021.80 1022.01 1022.19 1022.56 1022.72 1022.89 1022.95 1022.92 1022.90 1022.94 1022.53
1013.01 1012.46 1012.83 1012.22 1010.63 1009.47 1010.69 1010.56 1010.00 1010.37 1010.85 1011.10 1011.17 1011.66 1013.75 1014.26 1014.39 1015.58 1015.71 1016.03 1015.41 1017.17 1018.04 1018.19 1018.14 1018.86 1019.23 1019.85 1019.89 1020.17 1020.38 1020.33 1020.47 1020.71 1021.20 1021.50 1021.65 1021.85 1021.89 1022.07 1022.27 1022.59 1022.69 1023.01 1023.03 1022.94 1022.85 1023.03 1022.81
1012.85 1013.04 1012.42 1011.93 1011.16 1011.35 1011.06 1010.74 1010.93 1011.47 1011.21 1011.28 1011.69 1012.96 1015.00 1015.46 1015.49 1016.00 1016.90 1017.10 1017.52 1018.33 1018.70 1017.93 1018.49 1019.40 1019.75 1020.00 1019.89 1020.23 1020.41 1020.38 1020.77 1020.80 1021.19 1021.45 1021.73 1021.92 1021.99 1022.22 1022.26 1022.40 1022.70 1022.78 1022.80 1022.87 1022.97 1022.88 1022.79
1011.80 1012.59 1012.44 1011.81 1011.51 1012.25 1011.76 1011.10 1010.61 1010.89 1011.23 1011.35 1012.56 1013.75 1015.05 1016.02 1015.70 1016.16 1017.46 1018.17 1018.52 1019.45 1019.50 1019.18 1019.54 1019.90 1020.00 1020.23 1020.47 1020.36 1020.45 1020.43 1020.86 1020.90 1021.24 1021.41 1021.65 1021.91 1022.11 1022.27 1022.28 1022.61 1022.53 1022.63 1022.81 1022.69 1022.90 1022.90 1022.79
1011.25 1012.15 1012.33 1011.98 1011.94 1012.93 1013.19 1011.72 1011.25 1011.17 1011.51 1011.96 1014.07 1014.11 1014.65 1016.07 1016.36 1016.91 1017.99 1018.41 1018.79 1020.34 1020.10 1019.70 1019.44 1020.23 1020.08 1020.51 1020.62 1020.40 1020.53 1020.59 1020.86 1021.03 1021.24 1021.73 1022.11 1022.26 1022.22 1022.29 1022.42 1022.62 1022.73 1022.73 1022.83 1022.87 1022.86 1022.72 1022.79
1011.12 1011.57 1011.67 1011.64 1011.77 1011.77 1012.17 1012.45 1011.82 1011.60 1012.24 1014.00 1014.36 1015.44 1016.31 1016.99 1017.21 1016.90 1017.63 1017.95 1018.78 1019.82 1019.85 1019.34 1019.96 1020.24 1020.36 1020.31 1020.53 1020.57 1020.66 1020.84 1020.98 1021.18 1021.48 1021.70 1022.05 1022.39 1022.32 1022.58 1022.79 1022.98 1023.14 1022.98 1022.74 1022.96 1022.87 1022.87 1023.12
1010.47 1010.78 1010.92 1010.95 1011.09 1011.05 1011.26 1011.59 1011.92 1011.84 1012.70 1012.85 1013.53 1013.95 1016.07 1016.34 1017.26 1017.17 1017.96 1018.09 1018.35 1019.40 1019.62 1019.83 1019.69 1019.64 1019.88 1019.98 1020.21 1020.66 1020.87 1020.73 1020.86 1021.16 1021.38 1021.82 1021.98 1022.36 1022.55 1022.88 1023.20 1023.07 1022.89 1023.11 1023.20 1023.19 1023.39 1023.18 1023.36
1010.19 1009.57 1009.79 1009.85 1010.27 1010.68 1011.35 1011.98 1011.75 1011.94 1012.48 1013.11 1013.09 1013.58 1014.92 1015.94 1017.01 1017.32 1017.67 1017.91 1018.47 1018.95 1018.84 1018.96 1019.22 1019.42 1019.56 1019.81 1020.20 1020.35 1020.40 1020.57 1020.91 1021.26 1021.42 1021.69 1022.11 1022.44 1022.78 1023.20 1023.31 1023.35 1023.24 1023.38 1023.39 1023.44 1023.53 1023.63 1023.47
1009.19 1008.76 1009.03 1008.73 1009.20 1010.03 1010.52 1011.34 1011.89 1012.24 1012.44 1013.40 1013.91 1014.25 1014.58 1015.00 1016.11 1017.29 1017.17 1017.52 1017.89 1018.36 1018.69 1018.91 1018.91 1019.09 1019.65 1020.11 1020.28 1020.37 1020.55 1020.83 1021.18 1021.24 1021.45 1021.83 1022.37 1022.72 1022.97 1023.44 1023.53 1023.47 1023.59 1023.61 1023.78 1023.72 1023.80 1023.82 1023.66
1008.13 1008.24 1008.42 1008.24 1008.75 1009.46 1010.34 1011.13 1010.68 1012.04 1012.52 1013.15 1014.02 1014.12 1014.03 1014.60 1015.38 1016.06 1016.55 1017.01 1017.57 1018.13 1018.46 1018.55 1018.95 1019.22 1019.47 1019.73 1019.88 1020.34 1020.71 1020.75 1021.10 1021.52 1021.83 1022.23 1022.74 1023.12 1023.39 1023.62 1023.76 1023.77 1023.82 1023.84 1023.73 1023.82 1024.13 1024.22 1024.07
1007.91 1008.21 1008.16 1008.35 1008.67 1009.01 1009.72 1011.26 1011.42 1011.74 1012.41 1013.05 1013.76 1013.84 1013.63 1013.74 1014.44 1015.21 1015.63 1016.54 1017.25 1017.91 1018.20 1018.44 1018.83 1018.92 1019.17 1019.74 1020.02 1020.30 1020.55 1021.09 1021.54 1022.03 1022.37 1022.83 1023.13 1023.36 1023.46 1023.69 1023.99 1023.96 1023.78 1023.67 1023.79 1024.30 1024.41 1024.46 1024.19
1008.26 1008.45 1008.55 1008.13 1008.32 1008.70 1009.75 1011.49 1011.47 1011.58 1011.97 1012.58 1012.92 1013.13 1013.42 1013.81 1014.31 1014.85 1015.35 1016.02 1016.96 1017.64 1018.19 1018.51 1018.87 1019.06 1019.58 1019.98 1020.42 1020.84 1021.16 1021.47 1021.93 1022.29 1022.54 1022.87 1022.95 1023.31 1023.56 1023.81 1023.94 1023.64 1023.68 1023.99 1024.29 1024.53 1024.75 1024.63 1024.59
1009.04 1009.27 1009.01 1008.63 1007.95 1009.05 1009.86 1011.11 1011.24 1011.20 1011.94 1012.70 1012.91 1013.31 1013.67 1013.95 1014.33 1014.59 1015.12 1015.64 1016.47 1017.18 1018.00 1018.67 1019.06 1019.33 1019.80 1020.01 1020.57 1021.01 1021.24 1021.61 1022.08 1022.53 1022.76 1022.93 1023.11 1023.34 1023.57 1023.76 1023.86 1023.83 1024.26 1024.48 1024.54 1024.67 1024.59 1024.60 1024.77
1009.45 1009.30 1009.01 1008.76 1008.31 1008.65 1009.91 1010.58 1011.21 1011.50 1012.07 1013.15 1013.65 1014.21 1013.96 1014.08 1014.23 1014.46 1015.04 1015.72 1016.19 1016.99 1017.84 1018.54 1019.00 1019.36 1019.73 1020.31 1020.92 1021.31 1021.67 1022.18 1022.47 1022.55 1022.79 1023.08 1023.37 1023.40 1023.83 1024.26 1024.34 1024.30 1024.51 1024.66 1024.59 1024.66 1024.61 1024.72 1024.71
1008.92 1009.03 1009.18 1008.57 1008.16 1008.78 1009.38 1010.53 1011.48 1011.81 1012.19 1012.65 1014.02 1014.42 1014.70 1013.79 1013.81 1014.28 1014.94 1015.72 1016.35 1017.00 1017.56 1018.27 1018.92 1019.35 1019.87 1020.44 1020.95 1021.63 1022.06 1022.30 1022.53 1022.77 1023.16 1023.52 1023.62 1023.83 1024.02 1024.21 1024.26 1024.39 1024.58 1024.61 1024.52 1024.70 1024.76 1024.71 1024.64
1009.18 1009.47 1009.19 1008.30 1008.17 1008.80 1009.99 1010.41 1010.96 1011.96 1012.18 1012.19 1013.68 1014.10 1014.35 1013.98 1014.02 1014.31 1014.82 1015.53 1015.99 1016.65 1017.30 1017.88 1018.62 1019.09 1019.57 1019.98 1020.51 1021.00 1021.60 1022.12 1022.36 1023.03 1023.35 1023.42 1023.57 1023.79 1024.02 1024.50 1024.74 1024.76 1024.64 1024.57 1024.61 1024.60 1024.82 1024.88 1024.81
1009.38 1009.21 1008.65 1008.44 1008.53 1009.09 1009.95 1011.32 1011.80 1011.70 1012.08 1012.37 1013.17 1013.09 1013.21 1013.05 1013.63 1014.17 1014.52 1015.21 1015.69 1016.24 1016.93 1017.48 1018.05 1018.46 1019.15 1019.70 1020.36 1021.09 1021.70 1022.38 1023.05 1023.45 1023.75 1023.88 1023.91 1024.07 1024.35 1024.66 1024.77 1024.84 1024.85 1024.84 1024.67 1024.52 1024.65 1025.04 1025.04
1009.11 1008.60 1008.83 1008.95 1009.59 1010.39 1010.68 1012.39 1012.11 1011.54 1011.48 1011.88 1011.97 1012.16 1012.04 1012.43 1013.00 1013.28 1014.16 1014.91 1015.48 1016.15 1016.42 1016.93 1017.36 1018.12 1018.98 1019.37 1019.93 1020.69 1021.66 1022.37 1022.95 1023.37 1023.75 1023.81 1023.66 1023.88 1024.04 1024.28 1024.56 1024.72 1024.88 1024.91 1024.67 1024.34 1024.87 1025.02 1025.63
1008.35 1008.15 1008.90 1009.77 1010.22 1011.17 1011.72 1012.59 1012.58 1011.98 1011.89 1011.29 1011.11 1011.12 1011.31 1011.53 1011.96 1012.69 1013.62 1014.53 1015.43 1015.96 1016.38 1016.87 1017.45 1018.08 1018.74 1019.25 1019.72 1020.57 1021.62 1022.30 1022.81 1023.17 1023.46 1023.72 1023.79 1023.93 1024.11 1024.21 1024.42 1024.71 1024.79 1024.94 1025.08 1025.29 1025.41 1025.57 1025.98
1008.02 1008.81 1009.62 1010.35 1011.64 1012.79 1012.16 1011.94 1011.93 1011.62 1010.87 1010.49 1010.19 1010.27 1010.65 1011.26 1011.89 1012.70 1013.44 1014.23 1015.27 1016.01 1016.47 1016.89 1017.43 1018.35 1018.83 1019.28 1019.92 1020.53 1021.38 1022.13 1022.69 1023.16 1023.55 1023.68 1023.96 1024.19 1024.32 1024.26 1024.42 1024.74 1025.04 1025.27 1025.42 1025.56 1025.74 1025.79 1025.86
1008.65 1009.62 1011.14 1012.42 1013.27 1013.90 1013.07 1012.55 1011.20 1010.21 1009.90 1009.80 1009.66 1009.69 1010.78 1011.21 1012.14 1012.90 1013.71 1014.41 1015.19 1016.16 1016.79 1017.17 1017.58 1018.73 1019.07 1019.63 1020.29 1020.79 1021.31 1021.74 1022.40 1023.00 1023.47 1023.78 1024.04 1024.23 1024.32 1024.34 1024.56 1024.86 1025.11 1025.15 1025.26 1025.41 1025.62 1025.77 1025.93
1008.93 1010.03 1011.86 1013.50 1014.83 1014.49 1013.03 1011.96 1010.00 1008.08 1008.28 1008.85 1009.30 1009.90 1010.84 1011.61 1012.12 1012.90 1013.37 1014.06 1015.17 1016.22 1016.75 1017.13 1017.97 1018.71 1019.22 1019.84 1020.55 1020.95 1021.38 1021.83 1022.37 1022.88 1023.32 1023.87 1024.34 1024.55 1024.40 1024.46 1024.35 1024.90 1024.89 1024.91 1025.00 1025.19 1025.34 1025.39 1025.58
1009.09 1009.95 1010.66 1013.55 1015.08 1015.59 1013.18 1010.99 1009.17 1008.24 1008.79 1009.49 1009.71 1010.66 1011.36 1011.60 1012.19 1012.90 1013.53 1014.32 1015.17 1016.02 1016.75 1017.34 1018.03 1018.78 1019.38 1019.96 1020.61 1021.21 1021.67 1022.03 1022.44 1022.88 1023.36 1023.92 1024.31 1024.30 1024.92 1024.80 1024.67 1024.88 1024.85 1024.92 1024.71 1024.97 1025.12 1025.15 1025.31
1008.73 1009.64 1010.68 1012.65 1015.24 1015.38 1013.56 1011.76 1009.98 1009.44 1009.32 1009.42 1010.38 1010.87 1011.28 1011.48 1012.21 1012.98 1013.63 1014.38 1014.97 1015.83 1016.55 1017.42 1018.07 1018.76 1019.51 1020.19 1020.83 1021.47 1021.99 1022.32 1022.61 1022.99 1023.39 1023.73 1023.82 1024.29 1024.76 1024.58 1024.95 1024.95 1024.66 1024.61 1024.63 1024.82 1024.75 1024.92 1025.11
1009.12 1009.56 1010.48 1011.98 1013.91 1014.97 1014.17 1012.52 1009.86 1009.13 1008.85 1009.27 1009.81 1010.20 1010.30 1010.96 1011.73 1012.51 1013.35 1014.05 1014.62 1015.41 1016.12 1016.94 1017.88 1018.74 1019.64 1020.30 1020.96 1021.69 1022.21 1022.52 1022.83 1023.14 1023.43 1023.71 1023.93 1024.19 1024.46 1024.68 1024.94 1024.84 1024.68 1024.51 1024.59 1024.63 1024.68 1024.73 1025.04
1008.68 1009.18 1010.28 1012.33 1013.92 1014.38 1013.88 1012.16 1009.77 1008.91 1008.47 1008.37 1008.83 1009.33 1009.80 1010.16 1010.84 1011.56 1012.36 1013.29 1014.22 1014.88 1015.59 1016.33 1017.19 1018.18 1019.14 1019.99 1020.75 1021.53 1022.08 1022.45 1022.79 1023.08 1023.38 1023.69 1024.09 1024.15 1024.34 1024.52 1024.68 1024.68 1024.56 1024.39 1024.34 1024.42 1024.55 1024.62 1024.65
Thickness
5690 5691 5690 5686 5660 5671 5671 5692 5720 5726 5732 5748 5757 5746 5731 5734 5726 5705 5723 5720 5717 5714 5692 5692 5695 5688 5689 5686 5685 5684 5681 5680 5677 5674 5672 5670 5670 5664 5663 5664 5663 5665 5663 5660 5659 5658 5657 5659 5658
5687 5686 5682 5675 5654 5648 5662 5710 5709 5722 5734 5742 5743 5740 5734 5715 5727 5719 5715 5713 5709 5703 5694 5685 5689 5685 5681 5680 5679 5675 5674 5671 5669 5667 5666 5666 5662 5661 5662 5660 5659 5658 5658 5655 5654 5653 5652 5652 5652
5682 5683 5665 5658 5652 5650 5669 5715 5718 5726 5731 5733 5726 5732 5726 5710 5715 5711 5717 5708 5700 5695 5684 5679 5682 5680 5676 5672 5668 5667 5666 5666 5663 5661 5660 5660 5659 5660 5659 5658 5658 5653 5652 5650 5649 5648 5646 5646 5647
5675 5673 5672 5656 5655 5685 5702 5710 5717 5713 5712 5722 5717 5702 5721 5723 5718 5716 5705 5695 5698 5690 5681 5678 5677 5675 5667 5659 5657 5656 5661 5659 5658 5654 5654 5653 5657 5656 5655 5655 5653 5649 5647 5645 5642 5641 5639 5640 5642
5669 5665 5648 5653 5668 5703 5717 5718 5710 5704 5702 5707 5719 5704 5702 5705 5711 5708 5694 5687 5687 5680 5671 5669 5666 5666 5656 5649 5645 5648 5653 5652 5653 5652 5651 5650 5651 5653 5652 5650 5648 5644 5641 5638 5636 5634 5634 5631 5634
5651 5663 5644 5648 5685 5714 5692 5700 5708 5702 5700 5706 5709 5710 5692 5696 5693 5689 5690 5684 5681 5672 5665 5661 5660 5656 5648 5638 5643 5644 5644 5648 5650 5653 5649 5649 5649 5647 5647 5646 5644 5640 5638 5631 5630 5629 5628 5625 5625
5648 5645 5648 5663 5679 5680 5687 5699 5691 5687 5691 5697 5704 5685 5677 5678 5682 5682 5675 5673 5670 5664 5662 5654 5659 5650 5642 5637 5642 5643 5643 5648 5648 5651 5650 5647 5645 5644 5644 5641 5640 5638 5634 5631 5629 5624 5621 5621 5620
5662 5653 5653 5667 5670 5658 5679 5689 5701 5695 5691 5705 5690 5671 5669 5668 5678 5676 5666 5660 5658 5651 5644 5649 5646 5644 5636 5637 5635 5639 5642 5646 5647 5649 5647 5646 5646 5642 5638 5636 5636 5630 5629 5627 5623 5621 5617 5616 5615
5672 5643 5645 5658 5653 5649 5658 5675 5687 5698 5692 5694 5674 5676 5676 5664 5668 5665 5656 5654 5651 5639 5640 5639 5640 5635 5631 5631 5632 5639 5644 5647 5647 5647 5645 5640 5637 5636 5635 5633 5630 5625 5623 5622 5618 5615 5614 5613 5609
5658 5646 5655 5666 5668 5664 5666 5667 5676 5683 5674 5661 5667 5663 5656 5648 5651 5656 5653 5652 5647 5637 5638 5643 5635 5634 5633 5632 5636 5642 5645 5645 5645 5644 5641 5640 5634 5630 5629 5626 5622 5618 5615 5615 5615 5608 5608 5607 5602
5667 5657 5667 5671 5674 5675 5675 5675 5678 5679 5669 5672 5668 5669 5651 5653 5646 5649 5645 5647 5645 5635 5632 5633 5635 5641 5640 5642 5644 5641 5640 5645 5643 5640 5637 5632 5631 5629 5627 5621 5615 5613 5612 5608 5604 5602 5597 5598 5594
5660 5678 5682 5681 5680 5674 5669 5671 5677 5676 5676 5673 5678 5675 5661 5653 5646 5644 5642 5645 5645 5641 5642 5643 5643 5643 5644 5643 5641 5643 5644 5643 5639 5636 5633 5632 5629 5625 5621 5614 5610 5608 5606 5602 5598 5595 5589 5587 5586
5670 5682 5685 5691 5690 5681 5684 5670 5670 5670 5678 5674 5669 5667 5662 5664 5656 5644 5649 5651 5650 5646 5644 5643 5644 5644 5641 5638 5640 5641 5641 5638 5634 5633 5631 5628 5623 5618 5613 5607 5603 5601 5597 5594 5590 5586 5583 5580 5577
5686 5686 5690 5696 5689 5688 5676 5672 5691 5682 5678 5672 5665 5661 5668 5666 5662 5655 5654 5651 5650 5645 5645 5647 5645 5642 5641 5643 5645 5642 5637 5635 5632 5628 5625 5621 5615 5610 5605 5602 5597 5594 5590 5587 5585 5581 5574 5569 5567
5687 5677 5689 5691 5685 5687 5688 5663 5670 5683 5678 5672 5664 5666 5671 5673 5671 5664 5662 5653 5652 5651 5651 5649 5648 5648 5646 5641 5638 5637 5635 5631 5627 5621 5617 5611 5607 5604 5600 5596 5589 5587 5585 5584 5577 5568 5562 5560 5558
5678 5675 5659 5686 5690 5691 5681 5645 5670 5681 5680 5674 5673 5674 5673 5671 5665 5663 5664 5660 5655 5653 5649 5647 5645 5644 5640 5638 5633 5629 5628 5625 5620 5615 5610 5606 5604 5598 5593 5588 5583 5583 5579 5571 5565 5559 5554 5552 5549
5665 5643 5658 5669 5696 5685 5675 5652 5674 5684 5683 5674 5671 5670 5670 5670 5668 5669 5667 5664 5659 5654 5647 5642 5639 5638 5635 5634 5629 5625 5623 5620 5614 5609 5605 5600 5595 5591 5586 5582 5576 5570 5564 5559 5553 5549 5546 5542 5536
5645 5651 5661 5661 5684 5690 5671 5666 5674 5677 5674 5663 5667 5658 5667 5667 5669 5671 5668 5664 5659 5653 5647 5642 5639 5636 5633 5625 5620 5618 5614 5609 5606 5604 5599 5592 5585 5582 5577 5569 5565 5561 5555 5550 5546 5542 5537 5531 5527
5670 5669 5662 5673 5692 5683 5676 5669 5666 5668 5668 5672 5655 5657 5652 5670 5674 5673 5668 5663 5657 5653 5649 5644 5636 5633 5630 5624 5619 5612 5608 5604 5601 5596 5588 5582 5578 5572 5566 5561 5556 5551 5546 5542 5538 5532 5527 5521 5517
5662 5654 5657 5681 5694 5689 5673 5670 5676 5666 5668 5672 5660 5659 5656 5664 5669 5669 5666 5664 5662 5655 5652 5644 5636 5633 5629 5626 5618 5614 5608 5603 5597 5587 5580 5575 5570 5565 5560 5553 5547 5542 5538 5533 5528 5523 5516 5508 5503
5659 5660 5668 5673 5688 5689 5677 5658 5662 5675 5673 5670 5662 5663 5670 5673 5670 5667 5667 5663 5661 5656 5649 5643 5637 5633 5628 5623 5617 5611 5604 5596 5587 5579 5573 5567 5563 5559 5552 5545 5539 5533 5527 5522 5516 5511 5505 5496 5490
5646 5677 5673 5678 5666 5643 5673 5620 5649 5672 5672 5673 5671 5670 5674 5675 5677 5675 5663 5657 5655 5650 5650 5647 5644 5633 5626 5621 5614 5607 5597 5589 5581 5574 5569 5565 5561 5553 5546 5538 5530 5523 5515 5509 5503 5499 5491 5484 5472
5665 5682 5677 5674 5665 5653 5657 5635 5639 5657 5660 5671 5676 5678 5674 5679 5679 5675 5666 5657 5651 5649 5644 5642 5638 5631 5625 5620 5613 5603 5591 5582 5574 5568 5562 5556 5549 5542 5535 5528 5520 5511 5504 5496 5490 5482 5474 5467 5457
5689 5676 5673 5668 5650 5615 5649 5643 5637 5647 5664 5674 5683 5687 5684 5678 5673 5672 5667 5660 5651 5646 5642 5638 5634 5626 5620 5614 5607 5599 5590 5580 5571 5562 5553 5546 5538 5531 5523 5515 5508 5497 5489 5481 5475 5467 5460 5451 5444
5675 5657 5622 5618 5602 5603 5646 5638 5646 5665 5675 5679 5683 5690 5683 5677 5669 5664 5660 5654 5650 5641 5634 5633 5630 5618 5613 5606 5597 5589 5581 5573 5564 5553 5543 5536 5527 5519 5511 5503 5495 5486 5477 5470 5462 5454 5445 5437 5428
5663 5650 5611 5602 5584 5616 5641 5632 5650 5691 5692 5691 5689 5685 5678 5671 5664 5661 5660 5658 5647 5639 5634 5630 5622 5614 5607 5598 5588 5580 5573 5564 5554 5544 5534 5523 5513 5504 5499 5491 5484 5473 5466 5459 5451 5442 5433 5425 5415
5660 5642 5657 5614 5609 5597 5629 5655 5677 5678 5674 5669 5671 5668 5666 5667 5661 5659 5657 5651 5642 5635 5628 5621 5615 5607 5599 5590 5579 5569 5562 5553 5543 5532 5522 5510 5501 5492 5482 5476 5469 5459 5453 5445 5440 5430 5421 5411 5402
5665 5667 5633 5621 5591 5598 5628 5638 5644 5659 5663 5665 5657 5661 5663 5663 5656 5650 5647 5642 5639 5631 5622 5612 5605 5598 5589 5579 5568 5557 5548 5538 5530 5521 5510 5500 5493 5482 5471 5465 5454 5446 5440 5432 5424 5415 5407 5396 5384
5648 5643 5652 5644 5613 5593 5588 5613 5667 5666 5670 5658 5658 5662 5666 5663 5658 5651 5646 5642 5637 5629 5619 5609 5598 5589 5579 5568 5556 5544 5533 5524 5516 5508 5499 5489 5479 5469 5460 5451 5441 5434 5427 5419 5409 5400 5391 5381 5367
5663 5656 5644 5596 5618 5598 5590 5611 5669 5672 5676 5676 5667 5668 5668 5668 5663 5656 5649 5641 5633 5627 5620 5609 5594 5583 5570 5559 5546 5533 5521 5512 5504 5496 5486 5477 5466 5458 5447 5438 5429 5421 5412 5404 5397 5388 5376 5366 5353